When you browse on this site, cookies collect data to enhance your experience and personalize the content and advertising you see.
Visit our Privacy Policy to learn more. By continuing to use the site, you agree to this use of cookies and data.
  • In Lithuania
  • List of Countries
  • For 7 days
  • Water Temperature
  • Weather Map
  • Weather Widgets
  • user-avatar
    Login

    Hourly Weather Barnsley

    Today, 25 February, Tuesday

    Time Temperature Precipitation Wind Pressure Humidity
    00:00 +2°C° 0 mm 7 mps 740 mmHg 79%
    01:00 +2°C° 0 mm 7 mps 739 mmHg 79%
    02:00 +2°C° 0 mm 7 mps 739 mmHg 80%
    03:00 0°C° 0 mm 7 mps 738 mmHg 80%
    04:00 +1°C° 0.1 mm 6 mps 738 mmHg 79%
    05:00 +1°C° 0.1 mm 6 mps 738 mmHg 78%
    06:00 +1°C° 0.1 mm 6 mps 738 mmHg 77%
    07:00 +1°C° 0.3 mm 6 mps 737 mmHg 80%
    08:00 +1°C° 0.3 mm 6 mps 737 mmHg 83%
    09:00 +1°C° 0.3 mm 6 mps 736 mmHg 86%
    10:00 +2°C° 0.1 mm 6 mps 736 mmHg 79%
    11:00 +3°C° 0.1 mm 6 mps 736 mmHg 73%
    12:00 +3°C° 0.1 mm 6 mps 736 mmHg 66%
    13:00 +3°C° 0.2 mm 6 mps 735 mmHg 66%
    14:00 +3°C° 0.2 mm 6 mps 735 mmHg 66%
    15:00 +3°C° 0.2 mm 6 mps 734 mmHg 66%
    16:00 +3°C° 0 mm 5 mps 734 mmHg 68%
    17:00 +2°C° 0 mm 5 mps 734 mmHg 71%
    18:00 +1°C° 0 mm 4 mps 733 mmHg 73%
    19:00 +1°C° 0.1 mm 4 mps 733 mmHg 78%
    20:00 0°C° 0.1 mm 5 mps 733 mmHg 82%
    21:00 0°C° 0.1 mm 5 mps 733 mmHg 86%
    22:00 0°C° 0.1 mm 5 mps 734 mmHg 85%
    23:00 -1°C° 0.1 mm 6 mps 734 mmHg 84%

    Tomorrow, 26 February, Wednesday

    Time Temperature Precipitation Wind Pressure Humidity
    00:00 -1°C° 0.1 mm 6 mps 734 mmHg 83%
    01:00 -1°C° 0 mm 6 mps 735 mmHg 81%
    02:00 -1°C° 0 mm 6 mps 735 mmHg 79%
    03:00 -1°C° 0 mm 6 mps 735 mmHg 77%
    04:00 -1°C° 0 mm 6 mps 735 mmHg 78%
    05:00 0°C° 0 mm 5 mps 736 mmHg 80%
    06:00 0°C° 0 mm 5 mps 736 mmHg 81%
    07:00 0°C° 0 mm 5 mps 737 mmHg 77%
    08:00 +1°C° 0 mm 6 mps 738 mmHg 74%
    09:00 +2°C° 0 mm 6 mps 739 mmHg 70%
    10:00 +2°C° 0 mm 7 mps 740 mmHg 68%
    11:00 +3°C° 0 mm 7 mps 741 mmHg 66%
    12:00 +2°C° 0 mm 8 mps 742 mmHg 63%
    13:00 +2°C° 0 mm 8 mps 742 mmHg 60%
    14:00 +2°C° 0 mm 8 mps 742 mmHg 57%
    15:00 +2°C° 0 mm 8 mps 742 mmHg 54%
    16:00 +2°C° 0 mm 7 mps 743 mmHg 58%
    17:00 +1°C° 0 mm 6 mps 743 mmHg 63%
    18:00 +1°C° 0 mm 5 mps 743 mmHg 67%
    19:00 0°C° 0 mm 5 mps 742 mmHg 72%
    20:00 0°C° 0 mm 4 mps 742 mmHg 77%
    21:00 0°C° 0 mm 4 mps 742 mmHg 82%
    22:00 0°C° 0.1 mm 4 mps 741 mmHg 84%
    23:00 0°C° 0.1 mm 4 mps 741 mmHg 87%

    Day after tomorrow, 27 February, Thursday

    Time Temperature Precipitation Wind Pressure Humidity
    00:00 0°C° 0.1 mm 4 mps 740 mmHg 89%
    01:00 +1°C° 0.1 mm 3 mps 739 mmHg 90%
    02:00 +1°C° 0.1 mm 3 mps 739 mmHg 91%
    03:00 +1°C° 0.1 mm 3 mps 738 mmHg 93%
    04:00 +2°C° 0.2 mm 2 mps 737 mmHg 93%
    05:00 +2°C° 0.2 mm 1 mps 736 mmHg 94%
    06:00 +2°C° 0.2 mm 1 mps 736 mmHg 94%
    07:00 +2°C° 0.3 mm 1 mps 736 mmHg 94%
    08:00 +1°C° 0.3 mm 2 mps 735 mmHg 94%
    09:00 +2°C° 0.3 mm 2 mps 735 mmHg 93%
    10:00 +1°C° 0.1 mm 3 mps 736 mmHg 86%
    11:00 +1°C° 0.1 mm 4 mps 736 mmHg 79%
    12:00 +2°C° 0.1 mm 6 mps 737 mmHg 72%
    13:00 +2°C° 0.1 mm 6 mps 737 mmHg 69%
    14:00 +2°C° 0.1 mm 7 mps 738 mmHg 67%
    15:00 +2°C° 0.1 mm 8 mps 738 mmHg 64%
    16:00 +2°C° 0 mm 7 mps 739 mmHg 66%
    17:00 +2°C° 0 mm 7 mps 740 mmHg 69%
    18:00 0°C° 0 mm 7 mps 741 mmHg 71%
    19:00 +1°C° 0 mm 6 mps 742 mmHg 72%
    20:00 +1°C° 0 mm 6 mps 743 mmHg 73%
    21:00 +1°C° 0 mm 6 mps 744 mmHg 74%
    22:00 -1°C° 0 mm 6 mps 744 mmHg 74%
    23:00 0°C° 0 mm 5 mps 745 mmHg 74%

    28 February, Friday

    Time Temperature Precipitation Wind Pressure Humidity
    00:00 0°C° 0 mm 5 mps 745 mmHg 74%
    01:00 0°C° 0 mm 4 mps 746 mmHg 75%
    02:00 0°C° 0 mm 4 mps 746 mmHg 76%
    03:00 -1°C° 0 mm 4 mps 746 mmHg 78%
    04:00 -1°C° 0 mm 4 mps 746 mmHg 78%
    05:00 +1°C° 0 mm 3 mps 746 mmHg 79%
    06:00 +1°C° 0 mm 3 mps 746 mmHg 80%
    07:00 +1°C° 0 mm 3 mps 746 mmHg 78%
    08:00 +1°C° 0 mm 3 mps 746 mmHg 76%
    09:00 +2°C° 0 mm 3 mps 746 mmHg 74%
    10:00 +3°C° 0 mm 3 mps 746 mmHg 71%
    11:00 +3°C° 0 mm 4 mps 746 mmHg 68%
    12:00 +4°C° 0 mm 4 mps 745 mmHg 65%
    13:00 +4°C° 0 mm 4 mps 745 mmHg 66%
    14:00 +5°C° 0 mm 5 mps 744 mmHg 67%
    15:00 +5°C° 0 mm 5 mps 743 mmHg 68%
    16:00 +3°C° 0 mm 5 mps 742 mmHg 72%
    17:00 +3°C° 0 mm 5 mps 741 mmHg 76%
    18:00 +2°C° 0 mm 5 mps 740 mmHg 80%
    19:00 +2°C° 0 mm 5 mps 739 mmHg 83%
    20:00 +2°C° 0 mm 6 mps 738 mmHg 86%
    21:00 +2°C° 0 mm 6 mps 737 mmHg 90%
    22:00 +2°C° 0.4 mm 6 mps 736 mmHg 90%
    23:00 +2°C° 0.4 mm 6 mps 734 mmHg 91%

    29 February, Saturday

    Time Temperature Precipitation Wind Pressure Humidity
    00:00 +2°C° 0.4 mm 6 mps 733 mmHg 92%
    01:00 +3°C° 1 mm 6 mps 731 mmHg 93%
    02:00 +4°C° 1 mm 6 mps 729 mmHg 94%
    03:00 +5°C° 1 mm 6 mps 727 mmHg 95%
    04:00 +5°C° 0.1 mm 6 mps 726 mmHg 93%
    05:00 +5°C° 0.1 mm 6 mps 724 mmHg 91%
    06:00 +5°C° 0.1 mm 7 mps 722 mmHg 89%
    07:00 +5°C° 1.5 mm 7 mps 722 mmHg 89%
    08:00 +5°C° 1.5 mm 7 mps 721 mmHg 89%
    09:00 +4°C° 1.5 mm 7 mps 721 mmHg 89%
    10:00 +2°C° 1 mm 8 mps 721 mmHg 90%
    11:00 +1°C° 1 mm 8 mps 722 mmHg 90%
    12:00 0°C° 1 mm 9 mps 723 mmHg 91%
    13:00 0°C° 0.1 mm 9 mps 724 mmHg 80%
    14:00 +1°C° 0.1 mm 9 mps 725 mmHg 70%
    15:00 +1°C° 0.1 mm 8 mps 726 mmHg 60%
    16:00 +2°C° 0 mm 7 mps 726 mmHg 62%
    17:00 +1°C° 0 mm 6 mps 726 mmHg 63%
    18:00 -1°C° 0 mm 6 mps 727 mmHg 65%
    19:00 -1°C° 0 mm 6 mps 727 mmHg 67%
    20:00 -1°C° 0 mm 6 mps 727 mmHg 70%
    21:00 -1°C° 0 mm 6 mps 727 mmHg 72%
    22:00 -1°C° 0.1 mm 6 mps 727 mmHg 74%
    23:00 -1°C° 0.1 mm 6 mps 728 mmHg 75%

    1 March, Sunday

    Time Temperature Precipitation Wind Pressure Humidity
    00:00 -1°C° 0.1 mm 6 mps 728 mmHg 77%
    01:00 -1°C° 0 mm 6 mps 728 mmHg 76%
    02:00 -1°C° 0 mm 6 mps 728 mmHg 75%
    03:00 -1°C° 0 mm 6 mps 728 mmHg 74%
    04:00 -1°C° 0 mm 6 mps 728 mmHg 75%
    05:00 -1°C° 0 mm 6 mps 728 mmHg 76%
    06:00 -2°C° 0 mm 6 mps 728 mmHg 77%
    07:00 -1°C° 0.1 mm 6 mps 728 mmHg 76%
    08:00 +1°C° 0.1 mm 6 mps 728 mmHg 76%
    09:00 0°C° 0.1 mm 7 mps 728 mmHg 75%
    10:00 +2°C° 0 mm 7 mps 727 mmHg 69%
    11:00 +2°C° 0 mm 8 mps 727 mmHg 64%
    12:00 +3°C° 0 mm 9 mps 727 mmHg 58%
    13:00 +3°C° 0 mm 9 mps 726 mmHg 60%
    14:00 +3°C° 0 mm 9 mps 726 mmHg 62%
    15:00 +3°C° 0 mm 9 mps 726 mmHg 64%
    16:00 +2°C° 0 mm 8 mps 726 mmHg 68%
    17:00 +2°C° 0 mm 8 mps 726 mmHg 71%
    18:00 +3°C° 0 mm 7 mps 726 mmHg 74%
    19:00 +2°C° 0 mm 7 mps 726 mmHg 76%
    20:00 +1°C° 0 mm 8 mps 727 mmHg 79%
    21:00 +1°C° 0 mm 8 mps 727 mmHg 82%
    22:00 +1°C° 0.1 mm 8 mps 727 mmHg 81%
    23:00 +1°C° 0.1 mm 8 mps 728 mmHg 81%
    Show more